Terminal Aerodrome Forecast
Issued by NWS North Platte, NE

Home | Current Version | Previous Version | Text Only | Print | Product List | Glossary Off
Versions: 1 2 3 4 5 6 7 8 9 10 11 12 13 14 15 16 17 18

000
FTUS43 KLBF 261200 AAA
TAFVTN
TAF AMD
KVTN 261257Z 2613/2712 02004KT P6SM BKN200
      TEMPO 2613/2614 4SM BR BKN006
     FM261500 34010KT P6SM SCT050 BKN200
     FM261700 35015G21KT P6SM SCT050
     FM270000 34009KT P6SM SKC=

USA.gov is the U.S. government's official web portal to all federal, state and local government web resources and services.